Regional Weather Roundup
Issued by NWS

Home | Current Version | Previous Version | Graphics & Text | Print | Product List | Glossary Off
Versions: 1 2 3 4 5 6 7 8 9 10 11 12 13 14 15 16 17 18 19 20 21 22 23 24 25 26 27 28 29 30 31 32 33 34 35 36 37 38 39 40 41 42 43 44 45 46 47 48 49 50

000
ASUS43 KDMX 211307
RWRIA

WEATHER ROUNDUP FOR IOWA
NATIONAL WEATHER SERVICE DES MOINES IA
800 AM CDT SUN SEP 21 2014

NOTE: "FAIR" INDICATES FEW OR NO CLOUDS BELOW 12,000 FEET WITH NO
SIGNIFICANT WEATHER AND/OR OBSTRUCTIONS TO VISIBILITY.

* - THESE STATIONS ARE NOT NWS STATIONS...THUS NOT UNDER NWS
QUALITY CONTROL.  THEY ALSO DO NOT REPORT WEATHER SUCH
AS PRECIPITATION OR FOG.

IAZ001>003-012>014-020>022-031>034-043>046-211400-
   NORTHWEST IOWA

CITY           SKY/WX    TMP DP  RH WIND       PRES   REMARKS
CARROLL *      CLEAR     55  46  71 NW12G18   30.12R
CHEROKEE *     CLEAR     52  46  82 NW7       30.15R
DENISON *      CLEAR     52  48  87 W7        30.13R
LE MARS *      CLEAR     52  46  82 NW9       30.17R
ORANGE CITY *  CLEAR     52  45  76 NW8       30.16R
SHELDON *      CLEAR     50  46  87 NW8       30.14R
SIOUX CITY     CLEAR     54  45  71 N12       30.18R
SPENCER        CLEAR     50  46  86 NW9       30.13R
STORM LAKE *   CLEAR     48  48 100 NW7       30.12R
$$

IAZ055>058-069>071-079>083-090>094-211400-
   SOUTHWEST IOWA

CITY           SKY/WX    TMP DP  RH WIND       PRES   REMARKS
ATLANTIC *     CLEAR     54  50  87 NW6       30.14R
AUDUBON *      CLEAR     54  45  71 NW7       30.14R
COUNCIL BLFS * CLEAR     55  50  82 NW6       30.16R
CRESTON *      CLEAR     54  52  94 NW9       30.12R
HARLAN  *      CLEAR     54  48  82 NW12      30.18R
LAMONI         SUNNY     56  51  84 NW13      30.09R
RED OAK *      CLEAR     55  52  88 NW8       30.15R
SHENANDOAH *   CLEAR     57  52  82 NW7       30.17R
$$

IAZ047>049-059>061-072>074-084-211400-
   CENTRAL IOWA

CITY           SKY/WX    TMP DP  RH WIND       PRES   REMARKS
AMES           SUNNY     56  47  71 NW14      30.06R
ANKENY *       SUNNY     55  50  82 NW8       30.07R
CHARITON *     SUNNY     57  50  77 NW13      30.08R
DES MOINES     SUNNY     57  48  72 NW10      30.07R
GRINNELL*      SUNNY     54  48  82 NW12      30.04R
KNOXVILLE *    SUNNY     55  48  76 W12       30.05R
MARSHALLTOWN   SUNNY     53  48  83 W13       30.02R
PELLA *        SUNNY     57  50  77 NW9       30.06R
PERRY *          N/A     54  48  82 NW7       30.09R
$$

IAZ004>006-015-016-023>025-035-036-211400-
   NORTH CENTRAL IOWA

CITY           SKY/WX    TMP DP  RH WIND       PRES   REMARKS
ALGONA *       CLEAR     54  48  82 NW12G18   30.08R
CLARION *        N/A     52  48  87 NW10      30.06R
ESTHERVILLE    CLEAR     50  46  86 NW8       30.10R
FORT DODGE *   CLEAR     54  46  76 NW5       30.07S
MASON CITY     SUNNY     52  49  89 NW17G26   30.05R
FOREST CITY *  CLEAR     52  50  93 NW13G18   30.05R
IOWA FALLS *     N/A     54  48  82 NW13G20   30.05R
$$

IAZ007>011-017>019-026>030-037>042-050>054-066-211400-
   NORTHEAST IOWA

CITY           SKY/WX    TMP DP  RH WIND       PRES   REMARKS
CEDAR RAPIDS   SUNNY     55  50  83 NW15      29.97R
CHARLES CITY * PTSUNNY   54  48  82 NW18G26   30.01R
CLINTON *      SUNNY     55  50  82 W12G18    29.93R
DECORAH *      CLOUDY    54  48  82 NW15G23   29.95R
DUBUQUE        SUNNY     54  50  86 NW15G25   29.91R
MONTICELLO *   SUNNY     55  52  88 NW14G21   29.94R
OELWEIN *      SUNNY     54  50  87 NW16G24   29.98R
WATERLOO       SUNNY     54  48  80 NW14      29.99R
$$

IAZ064-065-067-068-078-211400-
   EAST CENTRAL IOWA

CITY           SKY/WX    TMP DP  RH WIND       PRES   REMARKS
DAVENPORT      SUNNY     56  51  84 W13       29.93R
IOWA CITY        N/A     58  50  75 NW12      29.98R
MT. PLEASANT * SUNNY     59  50  72 W8        30.00R
MUSCATINE *    SUNNY     59  52  77 NW14G20   29.97R
QUAD CITIES    SUNNY     59  51  75 W15       29.93R
$$

IAZ062-063-075>077-085>089-095>099-211400-
   SOUTHEAST IOWA

CITY           SKY/WX    TMP DP  RH WIND       PRES   REMARKS
BURLINGTON     SUNNY     58  53  84 W7        29.98R
FAIRFIELD *    SUNNY     57  50  77 W9        30.01R
FORT MADISON * SUNNY     61  52  72 W12       30.00R
KEOKUK *       SUNNY     57  54  88 W10       29.99S
OSKALOOSA *      N/A     55  52  88 W10       30.04R
CENTERVILLE *  SUNNY     55  50  82 W10       30.07R
OTTUMWA        SUNNY     56  50  80 W12       30.03R
WASHINGTON *   SUNNY     55  52  88 W8        30.00R
$$

ABBREVIATIONS USED IN REMARKS
   TC - TEMPERATURES IN CELSIUS
  WCI - WIND CHILL INDEX
   HX - HEAT INDEX
  VSB - VISIBILITY
$$




USA.gov is the U.S. government's official web portal to all federal, state and local government web resources and services.